Вернуться в каталог

THORAD AGENA D DEB

АктивенPO
NORAD 4653·DEBRIS·🇺🇸 United States

Запущен Apr 8, 1970 с Vandenberg Space Force Base

Loading…

Ближайшие Пролёты (ближайшие 24 часа)

TLE

СвежийSource: Space-Track

Эпоха: Sep 14, 2026, 09:49 UTC

1 04653U 70025AM  26257.40903732  .00009344  00000-0  15842-2 0  9994
2 04653  99.9968 232.6601 0012917  21.4230 338.7507 14.69484544880303

Отслеживайте THORAD AGENA D DEB в реальном времени с AllMySat

Download on the App Store